Lapse_Rate
7.3 6.5 6.5 6.5 6.5 6.5 6.5 6.5 6.5 6.5 6.5 6.5 6.5 6.5 6.5 7.3 7.6 7.4 7.6 7.6 7.9 8.1 8.8 9.0 9.1 9.5 9.6 9.6 9.5 9.4 9.4 9.4 9.6 9.6 9.5 9.5 8.8 7.7 8.1 9.5 9.2 9.1 9.3 9.6
6.5 6.5 6.5 6.5 6.5 6.5 6.5 6.5 6.5 6.5 6.5 6.5 6.5 6.5 6.5 6.9 7.1 7.5 7.6 7.8 7.9 8.2 8.3 8.5 9.0 9.2 9.4 9.4 9.4 9.3 9.3 9.3 9.2 9.8 9.5 9.5 8.4 8.3 8.8 7.4 8.6 9.6 9.5 9.6
6.5 6.5 6.5 6.5 6.5 6.5 6.5 6.5 6.5 6.5 6.5 6.5 6.5 6.5 6.5 6.6 7.3 7.5 7.9 8.0 8.2 8.0 7.9 8.5 8.7 8.9 9.3 9.1 9.3 9.3 9.2 9.3 9.1 8.9 9.7 9.6 9.6 8.6 9.4 8.9 9.7 9.6 9.4 9.6
6.5 6.7 6.5 6.5 6.5 6.5 6.5 6.5 6.5 6.5 6.5 6.5 6.5 6.5 6.5 6.5 6.5 6.8 7.4 7.9 8.0 8.3 8.4 8.4 8.6 8.7 9.0 9.2 9.4 9.4 9.3 9.3 9.5 9.1 9.1 9.0 8.6 8.9 8.8 4.5 7.4 7.7 9.7 9.6
6.5 6.5 6.5 6.5 6.5 6.5 6.5 6.5 6.5 6.5 6.5 6.5 6.5 6.5 6.5 6.5 6.5 6.5 7.1 7.6 8.1 8.3 8.5 8.4 8.6 8.7 9.0 9.1 9.2 9.4 9.3 8.9 8.5 9.4 7.8 9.4 8.3 7.9 7.2 5.5 6.8 9.5 8.9 9.2
6.5 7.2 6.5 6.5 6.5 6.5 6.5 6.5 6.5 6.5 6.5 6.5 6.5 6.5 6.5 6.5 6.5 6.5 7.1 7.6 7.8 8.0 8.2 8.7 8.9 8.3 8.4 9.3 9.2 8.5 9.1 9.1 9.1 8.8 7.7 7.6 5.9 7.7 7.7 8.5 7.1 8.7 9.7 6.8
6.5 6.5 6.6 6.9 6.5 6.5 6.5 6.5 6.5 6.5 6.5 6.5 6.5 6.5 6.5 6.5 6.5 6.6 6.7 7.5 8.0 8.2 8.5 8.5 8.5 8.7 8.9 8.8 8.8 7.7 8.8 7.8 8.0 8.8 8.8 8.2 8.6 7.8 7.6 7.4 6.7 7.4 7.3 6.1
6.5 6.5 6.5 6.5 6.5 6.5 6.5 6.5 6.5 6.5 6.5 6.5 6.5 6.5 6.5 6.5 7.2 7.4 7.6 7.8 8.1 8.4 8.5 8.5 8.6 8.7 8.9 8.4 9.0 8.8 6.6 7.9 8.1 6.3 5.1 6.0 7.0 7.8 7.1 7.7 7.0 7.0 7.2 7.6
6.5 6.5 6.5 6.5 6.5 6.5 6.5 6.5 6.5 6.5 6.5 6.5 6.5 6.5 6.5 6.5 6.5 7.0 7.3 7.6 7.7 7.9 7.1 7.4 6.3 6.4 8.7 8.9 8.5 5.8 4.2 3.2 3.5 4.6 6.5 5.3 5.7 5.3 6.8 7.2 7.4 9.4 9.4 9.6
6.5 6.5 6.5 6.5 6.7 6.6 6.5 6.5 6.5 6.5 6.5 6.5 6.5 6.5 6.5 6.5 6.5 6.5 6.7 7.4 7.8 7.2 5.5 6.7 7.5 8.0 8.8 9.3 9.4 9.4 8.1 5.7 3.2 2.5 3.2 4.8 6.4 7.3 8.0 8.5 7.3 6.7 6.5 5.9
6.5 6.5 6.5 6.5 6.5 6.5 6.5 6.5 6.5 6.5 6.5 6.5 6.5 6.5 6.5 6.5 6.5 6.5 7.0 7.5 7.4 7.4 7.2 7.5 8.4 8.8 8.9 9.2 9.4 9.3 9.1 8.9 8.7 6.3 6.5 5.8 5.8 6.1 8.4 8.9 8.9 8.7 6.5 7.3
6.5 6.5 6.5 6.5 6.5 6.5 6.5 6.5 6.5 6.5 6.5 6.5 6.5 6.5 6.5 6.5 7.0 7.2 7.1 7.4 5.8 6.3 6.0 6.9 8.1 8.7 8.8 8.9 9.1 9.3 7.2 6.6 4.9 3.9 4.1 6.4 5.7 5.3 6.0 7.0 6.8 6.7 6.5 6.7
6.5 6.5 6.5 6.5 6.5 6.5 6.5 6.5 6.5 6.5 6.5 6.5 6.5 6.5 6.5 7.0 7.0 7.3 7.5 7.6 7.3 6.2 5.7 7.2 7.6 7.9 8.3 6.5 6.2 5.3 5.3 5.2 4.6 2.7 3.7 5.9 5.0 5.3 4.6 4.2 4.4 4.1 5.0 5.8
6.2 6.5 6.5 6.5 6.5 6.5 6.5 6.5 6.5 6.5 6.5 6.5 6.5 6.5 6.5 6.5 6.5 7.3 7.6 7.6 7.4 7.6 7.8 7.1 6.4 6.2 5.7 4.5 2.2 2.4 4.8 6.3 6.2 6.3 8.4 8.0 7.4 5.9 4.9 4.9 5.5 5.5 4.5 4.7
6.5 6.5 6.5 6.5 6.5 6.5 6.5 6.5 6.5 6.5 6.5 6.5 6.5 6.5 6.5 6.5 6.5 7.4 7.8 7.7 7.6 7.6 7.9 8.1 8.4 8.6 8.8 8.9 9.0 9.2 9.3 9.3 9.0 8.3 9.0 9.0 9.2 9.1 9.2 9.3 9.2 9.1 9.0 9.5
6.5 6.5 6.5 6.5 6.5 6.5 6.5 6.5 6.5 6.5 6.5 6.5 6.5 6.5 6.5 7.3 7.8 7.4 7.6 7.8 7.8 8.0 8.2 8.4 8.6 8.7 8.8 8.8 9.0 9.1 9.1 9.1 8.1 7.2 8.4 8.0 7.1 7.2 7.7 8.1 8.9 9.3 9.4 9.5
6.5 6.5 6.5 6.5 6.5 6.5 6.5 6.5 6.5 6.5 6.5 6.5 6.5 6.5 6.7 6.6 7.0 7.4 7.6 7.8 7.8 8.1 8.3 8.4 8.6 8.7 8.9 9.0 9.1 9.1 9.2 9.4 9.3 9.3 9.3 9.4 9.4 9.3 9.3 9.4 9.4 9.3 9.3 9.5
6.5 6.5 6.5 6.5 6.5 6.5 6.5 6.5 6.5 6.5 6.5 6.5 6.5 6.5 6.7 7.0 7.6 8.0 8.2 7.9 7.9 8.2 8.3 8.5 8.7 8.9 9.0 9.2 9.2 9.3 9.4 9.3 9.3 9.2 9.2 9.3 9.2 9.1 9.3 9.3 9.3 9.3 9.5 9.3
6.6 6.5 6.5 6.5 6.5 6.5 6.5 6.5 6.5 6.5 6.5 6.5 6.5 6.6 7.1 7.5 7.7 7.5 8.2 8.4 8.3 8.3 8.5 8.7 9.0 9.0 9.1 9.1 9.2 9.2 9.2 9.3 9.2 9.2 9.2 9.3 9.4 9.2 9.2 9.1 9.0 9.2 9.1 9.4
6.5 6.5 6.5 6.5 6.5 6.5 6.5 6.5 7.2 6.9 6.5 6.9 7.0 6.8 7.0 7.2 6.5 6.5 8.2 8.5 8.6 8.8 8.9 8.9 9.1 9.2 9.1 9.2 9.3 9.1 9.1 9.1 9.1 9.2 9.3 9.4 9.4 9.2 9.1 9.0 9.1 9.3 9.4 9.6
6.5 6.5 6.5 6.5 6.5 6.5 6.5 6.9 7.4 6.5 6.5 7.1 7.3 7.3 7.2 6.6 7.3 8.0 8.5 8.5 8.8 8.9 8.9 9.1 9.1 9.0 9.1 9.3 9.3 9.0 9.1 8.9 9.3 9.4 9.4 9.3 9.4 9.2 9.1 8.9 9.2 9.2 9.1 9.1
6.5 6.5 6.5 6.5 6.5 6.5 7.1 6.8 6.5 6.7 7.4 7.5 7.5 7.6 7.4 7.7 8.0 8.2 8.4 8.5 8.6 8.7 8.9 9.0 8.9 9.0 9.2 9.3 9.2 8.9 8.9 9.2 9.4 9.4 9.3 9.2 9.2 9.4 9.4 8.9 8.9 8.4 8.7 8.8
6.5 6.5 6.5 6.5 6.5 6.9 7.5 7.2 7.8 7.8 7.5 7.6 7.7 7.9 7.9 7.8 8.0 8.2 8.3 8.4 8.6 8.7 8.8 9.1 9.0 9.0 9.2 9.3 9.3 8.9 9.1 9.3 9.2 9.2 9.2 9.3 9.3 9.3 9.3 9.0 8.5 9.1 8.2 8.4
6.5 7.0 6.5 6.5 6.6 6.8 7.3 7.9 8.0 8.1 7.9 8.1 8.3 8.2 8.2 7.9 8.1 8.2 8.3 8.4 8.6 8.7 8.8 9.0 9.0 8.9 8.9 9.2 9.3 9.3 9.3 9.4 9.3 9.0 9.1 9.2 9.2 8.1 9.1 8.3 9.3 9.1 9.2 7.5
6.8 6.7 6.5 6.5 6.7 7.2 7.5 7.8 8.0 8.0 8.2 8.2 8.4 8.4 8.3 8.3 8.1 8.3 8.3 8.4 8.6 8.7 8.9 9.0 8.9 8.9 8.9 9.2 9.2 9.4 9.4 9.4 9.3 9.2 9.3 9.2 9.5 9.3 8.9 8.9 9.4 9.4 9.3 6.2
7.1 6.5 6.5 6.5 7.1 7.0 7.2 7.9 8.2 8.0 8.1 8.3 8.3 8.3 8.5 8.5 8.4 8.5 8.4 8.7 8.7 8.7 8.9 8.9 9.0 9.0 9.0 9.2 9.2 9.3 9.4 9.3 9.2 9.1 9.3 9.3 9.4 9.5 9.3 9.2 9.1 7.9 5.2 2.9
Wind_Speed
14 13 12 15 4 14 2 13 4 20 13 15 12 16 18 18 17 16 16 13 14 15 16 13 11 12 13 13 14 13 12 9 7 7 7 6 5 3 2 8 4 4 6 6
7 13 11 1 4 4 6 7 5 6 14 10 18 18 17 16 15 16 15 16 16 16 16 14 12 12 14 13 13 13 12 11 9 7 6 5 3 2 3 7 3 8 9 6
16 5 7 4 7 9 11 11 6 5 10 19 15 10 18 17 14 14 15 14 16 16 16 17 14 12 12 14 13 13 13 12 10 9 5 4 4 5 5 4 7 10 12 9
14 6 8 9 11 9 17 7 7 15 15 1 10 1 7 17 16 15 14 15 14 17 17 15 16 14 14 13 14 13 13 12 11 11 9 5 6 7 2 2 1 2 2 7
14 15 9 12 9 9 7 4 9 11 12 9 7 11 11 22 17 18 17 15 16 15 18 17 16 16 13 12 13 14 13 11 8 10 9 8 8 4 5 4 8 1 5 10
16 3 5 13 2 8 3 6 5 9 12 13 11 11 10 11 15 18 16 17 13 14 13 15 15 13 11 6 3 6 14 10 10 6 1 7 5 8 10 5 6 5 6 2
17 13 10 8 12 6 11 14 9 11 10 10 4 6 12 13 6 3 6 18 18 12 15 12 9 10 8 6 2 3 12 5 4 4 2 4 4 5 8 8 6 8 9 7
15 15 16 14 18 13 16 18 13 12 12 7 10 8 10 11 7 4 7 10 19 20 14 14 14 11 9 13 11 12 12 11 9 8 9 9 12 6 3 6 5 3 4 5
11 19 15 13 15 10 15 17 17 15 16 10 8 10 10 12 8 5 7 11 14 18 5 13 20 18 16 13 14 14 11 11 8 12 8 7 5 4 6 7 5 4 3 6
17 11 13 9 6 9 16 8 14 10 16 17 14 10 10 14 13 11 7 18 18 21 21 12 15 14 14 12 13 14 12 10 7 7 6 5 7 4 4 4 6 7 5 6
17 12 11 12 14 16 13 15 15 16 13 9 10 3 11 13 14 14 12 13 14 16 14 11 13 14 10 10 10 12 11 12 11 8 8 6 7 7 8 9 7 7 9 9
17 12 14 15 5 8 10 10 17 14 16 12 11 2 8 11 19 18 14 13 12 11 11 7 10 12 8 9 9 9 9 9 9 6 7 7 7 9 9 9 12 13 10 11
13 11 15 9 11 8 14 15 13 17 14 15 8 6 9 17 13 12 15 13 11 9 9 6 7 7 9 9 9 7 5 7 6 7 6 9 9 9 11 12 13 13 14 15
5 14 15 7 15 10 18 13 7 13 10 11 13 14 11 18 14 13 13 13 11 11 10 8 6 6 7 7 6 7 5 5 5 5 3 5 8 9 11 12 13 13 14 16
11 16 12 7 5 12 4 11 6 9 10 14 17 12 18 19 16 16 16 15 14 12 12 11 10 9 8 8 7 6 3 2 5 4 6 8 8 9 10 9 12 13 14 15
16 12 5 3 3 4 6 3 7 9 9 11 13 13 16 16 17 16 15 16 14 12 11 10 10 9 7 5 4 4 5 6 7 8 9 8 9 10 11 12 13 15 15 15
12 10 8 11 2 5 10 9 9 6 8 8 11 13 16 14 17 16 14 12 12 11 11 9 8 6 6 6 3 4 4 4 4 4 5 6 7 10 10 11 13 15 16 16
6 6 7 2 5 13 8 5 6 5 6 8 6 5 8 11 11 14 12 11 9 10 10 8 7 6 5 4 4 4 5 5 5 6 7 9 10 12 13 14 15 16 17 17
4 6 3 8 10 4 11 5 2 3 4 3 4 2 8 9 11 11 7 9 10 10 8 8 6 4 3 3 2 3 4 5 6 7 8 9 10 11 13 15 15 15 17 18
5 4 6 3 9 7 11 8 7 3 5 7 5 6 9 8 9 10 13 10 9 8 7 6 5 4 2 1 3 4 5 7 8 10 10 10 12 13 13 14 14 15 16 17
1 3 7 7 10 1 6 7 4 5 6 5 7 6 8 7 6 12 10 8 8 7 6 4 3 2 1 2 3 6 7 8 10 11 12 12 13 13 13 13 13 15 16 16
3 4 9 8 5 2 6 7 2 5 6 5 4 7 6 8 8 8 7 7 7 6 5 5 3 3 3 4 5 7 8 9 10 11 13 14 13 12 12 13 12 15 16 16
4 5 3 7 5 4 4 7 7 1 2 1 1 3 4 5 6 6 6 6 6 5 4 4 4 4 5 5 5 8 9 10 11 12 13 13 13 13 12 11 10 12 12 14
4 3 4 3 7 3 3 5 5 2 2 1 4 6 5 6 7 6 3 5 4 4 4 4 4 5 6 6 8 10 10 11 12 13 13 12 12 12 8 6 9 10 12 9
6 4 3 5 6 2 5 6 5 3 1 3 5 6 5 6 3 5 6 5 3 2 2 4 5 6 8 9 10 11 11 12 12 13 13 14 11 13 8 7 9 10 12 6
7 6 6 3 8 3 7 4 2 4 5 5 7 6 5 5 7 7 4 2 1 2 3 4 6 7 9 10 11 12 11 11 12 13 12 10 11 12 10 9 11 8 12 12
Wind_Direction
193 238 216 200 125 197 321 182 51 160 146 200 147 145 161 172 172 168 167 170 169 168 150 153 151 146 150 159 168 180 184 179 187 199 202 206 224 253 272 198 210 131 218 252
207 243 189 100 225 268 257 212 158 139 173 224 148 154 159 174 175 170 179 168 170 162 154 162 165 158 159 162 174 181 188 183 205 205 230 294 342 343 316 80 120 229 216 250
257 49 53 210 258 247 232 250 186 101 197 97 302 157 155 171 169 164 181 173 179 168 167 165 168 178 179 162 178 183 194 193 203 240 210 216 282 310 262 290 217 210 215 232
263 304 277 234 247 271 271 147 297 154 223 348 213 173 328 168 171 165 181 175 192 171 177 173 173 186 191 181 179 183 190 200 203 215 241 220 213 252 214 341 267 25 295 292
224 236 251 245 266 214 44 220 219 234 152 213 237 232 177 215 176 174 182 180 189 189 176 179 188 185 198 185 188 183 185 190 228 195 244 239 229 293 318 8 344 274 316 269
253 154 264 270 225 282 98 200 251 276 276 233 192 245 171 162 179 172 190 169 195 189 197 186 182 170 177 163 182 169 167 192 193 214 227 267 302 285 289 278 294 290 279 262
226 205 214 240 224 235 237 222 219 220 225 245 184 197 100 112 65 85 186 173 183 205 198 178 151 160 139 146 116 50 109 127 94 70 6 289 262 276 285 316 327 322 324 335
221 207 196 224 241 213 231 253 251 245 243 246 118 223 120 118 139 205 247 262 174 184 195 188 191 188 156 131 123 99 66 112 103 61 47 41 18 358 314 21 0 323 326 318
253 233 172 196 227 243 229 228 268 298 295 277 243 107 126 152 128 209 210 208 234 166 100 93 76 67 86 93 88 83 89 82 71 77 50 71 56 31 356 344 325 0 308 332
269 275 179 170 224 234 266 303 239 234 262 274 280 243 139 164 143 88 58 65 71 69 78 64 67 75 83 98 106 98 99 113 137 103 75 6 328 21 306 316 331 337 305 345
257 254 185 158 212 226 199 244 251 288 290 288 261 96 74 123 131 134 99 72 67 77 85 87 96 92 89 81 75 80 69 60 58 31 45 24 340 348 328 325 337 320 328 318
234 249 240 205 213 281 298 251 229 231 238 258 274 56 99 116 118 110 106 99 82 67 65 72 94 106 110 89 56 74 68 65 52 26 19 345 341 346 326 341 338 330 320 314
225 224 249 157 178 208 251 253 266 280 278 275 290 108 144 106 120 126 123 107 111 116 110 104 84 92 101 85 72 68 36 57 61 51 15 1 343 343 337 332 330 325 316 310
296 250 251 284 344 237 198 230 236 266 263 259 248 127 155 129 133 130 124 123 131 136 139 133 127 112 106 101 88 62 350 8 32 19 28 26 339 341 338 335 325 318 317 312
242 248 267 82 287 306 158 192 196 260 291 295 307 327 165 143 141 139 140 147 148 152 155 151 139 128 118 119 116 120 139 75 48 22 18 17 346 346 333 316 318 317 315 303
225 254 265 260 290 272 255 233 268 285 301 293 287 291 118 126 129 142 155 153 149 143 133 125 126 127 118 100 72 59 43 31 26 19 17 2 353 343 334 330 327 320 307 301
243 246 207 244 281 254 247 253 221 295 317 296 293 12 127 150 142 157 160 147 142 141 136 132 127 121 117 114 92 72 56 30 29 20 17 5 354 352 346 335 326 323 312 307
205 223 234 210 262 243 67 51 7 314 316 315 301 321 132 139 155 151 156 144 142 137 135 140 142 140 139 103 86 48 33 27 12 6 353 348 346 344 337 329 325 324 321 311
68 227 199 263 229 263 173 131 48 308 96 21 297 152 134 159 154 134 140 137 145 135 135 145 146 139 125 88 47 1 347 347 336 335 333 327 319 317 319 328 326 324 320 312
76 29 288 18 303 278 69 75 67 4 234 107 121 151 148 158 203 187 153 150 144 134 134 150 142 164 169 38 336 325 327 323 316 316 313 310 308 307 312 312 313 321 320 316
250 335 296 311 292 146 104 111 89 247 86 124 134 139 148 192 62 115 144 143 141 141 151 155 189 241 230 270 299 305 313 308 314 308 304 300 300 300 297 293 311 315 315 320
263 254 234 284 244 220 99 125 286 67 132 141 148 160 185 120 119 139 145 147 146 155 163 201 235 258 278 285 287 292 300 306 306 306 303 297 296 295 306 298 307 317 311 315
260 331 55 228 69 132 134 62 89 33 111 55 246 273 211 181 181 172 166 166 172 184 199 233 246 257 274 277 294 296 305 306 303 299 301 302 300 292 286 306 318 311 337 330
141 5 289 324 129 153 139 103 138 164 286 317 298 292 219 254 210 167 180 180 187 200 234 248 265 283 294 303 303 300 303 310 303 302 306 303 290 279 313 294 335 325 334 322
46 157 245 245 158 164 187 192 180 152 294 278 284 284 268 247 180 199 185 214 223 248 260 272 282 283 295 299 301 303 306 309 301 301 305 292 303 316 323 322 329 308 328 295
165 204 214 77 117 264 111 134 200 228 233 251 269 253 249 233 193 201 203 196 232 263 256 256 267 285 293 302 304 307 310 302 295 300 297 318 304 312 313 325 316 286 269 260